Radiation Dose at Monitoring Post of Fukushima Daini Nuclear Power Station
Date,Time,MP-1(microSv/h),MP-2(microSv/h),MP-3(microSv/h),MP-4(microSv/h),MP-5(microSv/h),MP-6(microSv/h),MP-7(microSv/h),Wind Direction,Wind Velocity(m/s),Rain
2023/06/11,00:00,0.145,0.130,0.208,0.197,0.209,0.115,0.074,south-southeast,0.8,No
2023/06/11,00:10,0.143,0.131,0.207,0.202,0.208,0.116,0.074,south-southeast,1.9,No
2023/06/11,00:20,0.144,0.131,0.208,0.200,0.209,0.115,0.074,south-southeast,1.6,No
2023/06/11,00:30,0.144,0.130,0.207,0.199,0.208,0.116,0.075,southeast,1.5,No
2023/06/11,00:40,0.144,0.132,0.210,0.200,0.209,0.115,0.075,south-southeast,0.7,No
2023/06/11,00:50,0.146,0.131,0.207,0.198,0.208,0.116,0.074,south-southeast,0.7,Yes
2023/06/11,01:00,0.143,0.132,0.208,0.201,0.210,0.117,0.075,southeast,0.6,No
2023/06/11,01:10,0.145,0.132,0.207,0.198,0.210,0.115,0.075,south,1.8,No
2023/06/11,01:20,0.145,0.132,0.208,0.202,0.209,0.116,0.075,south-southeast,1.6,No
2023/06/11,01:30,0.145,0.131,0.208,0.200,0.210,0.116,0.076,south,0.9,Yes
2023/06/11,01:40,0.145,0.132,0.209,0.201,0.209,0.116,0.075,-,CALM,No
2023/06/11,01:50,0.145,0.131,0.210,0.201,0.211,0.116,0.076,-,CALM,No
2023/06/11,02:00,0.146,0.132,0.208,0.200,0.210,0.116,0.076,north-northwest,1.0,No
2023/06/11,02:10,0.145,0.133,0.209,0.202,0.210,0.117,0.076,north,1.6,No
2023/06/11,02:20,0.146,0.131,0.208,0.199,0.211,0.117,0.076,north,1.7,No
2023/06/11,02:30,0.145,0.132,0.209,0.201,0.209,0.115,0.076,north-northeast,0.9,No
2023/06/11,02:40,0.144,0.131,0.208,0.200,0.211,0.116,0.076,north,1.2,No
2023/06/11,02:50,0.146,0.132,0.209,0.202,0.210,0.116,0.077,north,2.1,No
2023/06/11,03:00,0.146,0.132,0.209,0.202,0.209,0.117,0.077,north-northwest,3.6,No
2023/06/11,03:10,0.146,0.131,0.208,0.201,0.210,0.117,0.077,north-northwest,4.8,No
2023/06/11,03:20,0.147,0.133,0.210,0.201,0.210,0.116,0.076,north-northwest,5.0,No
2023/06/11,03:30,0.146,0.131,0.209,0.200,0.212,0.117,0.077,north-northwest,4.3,No
2023/06/11,03:40,0.146,0.133,0.210,0.201,0.209,0.116,0.076,north-northwest,4.5,No
2023/06/11,03:50,0.146,0.130,0.209,0.201,0.210,0.116,0.076,north-northwest,4.1,No
2023/06/11,04:00,0.145,0.132,0.208,0.200,0.210,0.117,0.076,northwest,4.0,No
2023/06/11,04:10,0.146,0.132,0.209,0.201,0.209,0.116,0.076,north-northwest,3.7,No
2023/06/11,04:20,0.144,0.132,0.207,0.199,0.211,0.117,0.077,north-northwest,3.1,No
2023/06/11,04:30,0.146,0.132,0.209,0.201,0.210,0.117,0.077,north-northwest,2.6,Yes
2023/06/11,04:40,0.146,0.131,0.207,0.200,0.212,0.117,0.076,north-northwest,2.5,Yes
2023/06/11,04:50,0.147,0.133,0.209,0.202,0.212,0.117,0.077,north-northwest,2.8,Yes
2023/06/11,05:00,0.147,0.134,0.210,0.202,0.209,0.116,0.076,north-northwest,3.7,Yes
2023/06/11,05:10,0.147,0.133,0.210,0.200,0.211,0.117,0.076,north-northwest,4.0,Yes
2023/06/11,05:20,0.149,0.134,0.210,0.202,0.211,0.117,0.076,north-northwest,3.0,Yes
2023/06/11,05:30,0.147,0.133,0.209,0.200,0.211,0.117,0.077,north-northwest,1.5,Yes
2023/06/11,05:40,0.146,0.134,0.211,0.202,0.211,0.117,0.077,northwest,2.1,Yes
2023/06/11,05:50,0.147,0.132,0.207,0.200,0.208,0.117,0.076,north-northwest,3.2,No
2023/06/11,06:00,0.144,0.132,0.209,0.200,0.211,0.116,0.077,northwest,3.6,No
2023/06/11,06:10,0.146,0.131,0.208,0.203,0.209,0.117,0.076,northwest,3.6,No
2023/06/11,06:20,0.145,0.130,0.208,0.198,0.210,0.116,0.075,northwest,3.3,No
2023/06/11,06:30,0.144,0.131,0.209,0.201,0.210,0.117,0.076,northwest,3.3,No
2023/06/11,06:40,0.146,0.131,0.206,0.199,0.209,0.116,0.076,northwest,3.7,No
2023/06/11,06:50,0.144,0.132,0.209,0.199,0.209,0.115,0.075,north-northwest,3.3,No
2023/06/11,07:00,0.145,0.131,0.207,0.200,0.209,0.116,0.076,north-northwest,3.0,No
2023/06/11,07:10,0.144,0.130,0.206,0.199,0.207,0.116,0.075,north-northwest,2.3,No
2023/06/11,07:20,0.144,0.130,0.207,0.198,0.209,0.115,0.075,northwest,2.2,Yes
2023/06/11,07:30,0.144,0.129,0.205,0.200,0.209,0.115,0.075,north-northwest,2.2,Yes
2023/06/11,07:40,0.144,0.131,0.207,0.198,0.207,0.115,0.075,north-northwest,2.0,Yes
2023/06/11,07:50,0.144,0.130,0.207,0.199,0.210,0.115,0.076,north-northwest,1.6,Yes
2023/06/11,08:00,0.145,0.130,0.207,0.200,0.209,0.116,0.076,north-northwest,1.6,Yes
2023/06/11,08:10,0.144,0.131,0.209,0.198,0.208,0.116,0.076,north-northwest,1.9,Yes
2023/06/11,08:20,0.145,0.130,0.206,0.200,0.210,0.116,0.076,north-northwest,2.2,Yes
2023/06/11,08:30,0.146,0.132,0.207,0.200,0.208,0.116,0.077,north,1.2,Yes
2023/06/11,08:40,0.145,0.131,0.209,0.200,0.210,0.117,0.077,north-northwest,2.0,Yes
2023/06/11,08:50,0.147,0.132,0.207,0.201,0.211,0.117,0.077,north-northwest,1.7,Yes
2023/06/11,09:00,0.146,0.133,0.210,0.200,0.209,0.118,0.077,north,1.2,Yes
2023/06/11,09:10,0.148,0.133,0.209,0.202,0.213,0.118,0.079,north,1.0,Yes
2023/06/11,09:20,0.148,0.136,0.210,0.203,0.211,0.119,0.080,northeast,3.4,Yes
2023/06/11,09:30,0.149,0.136,0.211,0.201,0.211,0.119,0.082,north,1.5,Yes
2023/06/11,09:40,0.150,0.136,0.209,0.204,0.213,0.121,0.082,north,1.8,Yes
2023/06/11,09:50,0.147,0.135,0.209,0.200,0.211,0.121,0.082,north-northwest,1.2,Yes
2023/06/11,10:00,0.148,0.135,0.208,0.201,0.211,0.119,0.082,north,1.8,Yes
2023/06/11,10:10,0.147,0.133,0.209,0.201,0.211,0.118,0.081,north,1.3,Yes
2023/06/11,10:20,0.146,0.133,0.207,0.198,0.207,0.119,0.080,north-northeast,1.5,Yes
2023/06/11,10:30,0.147,0.133,0.205,0.200,0.210,0.117,0.080,northeast,1.1,Yes
2023/06/11,10:40,0.145,0.131,0.206,0.199,0.209,0.118,0.079,north-northeast,1.1,Yes
2023/06/11,10:50,0.145,0.132,0.204,0.197,0.206,0.117,0.078,north,1.1,Yes
2023/06/11,11:00,0.145,0.132,0.205,0.198,0.208,0.116,0.078,north-northeast,1.0,Yes
2023/06/11,11:10,0.143,0.130,0.204,0.196,0.206,0.116,0.077,north-northeast,1.8,Yes
2023/06/11,11:20,0.145,0.130,0.202,0.197,0.205,0.116,0.077,north-northeast,2.7,Yes
2023/06/11,11:30,0.142,0.130,0.204,0.196,0.207,0.115,0.076,north,2.0,Yes
2023/06/11,11:40,0.143,0.130,0.203,0.194,0.205,0.115,0.076,north-northeast,2.4,Yes
2023/06/11,11:50,0.142,0.129,0.203,0.197,0.207,0.114,0.076,north,2.1,Yes
2023/06/11,12:00,0.142,0.129,0.202,0.194,0.207,0.115,0.075,north-northeast,2.5,Yes
2023/06/11,12:10,0.143,0.129,0.202,0.195,0.205,0.114,0.074,north-northeast,2.6,Yes
2023/06/11,12:20,0.143,0.127,0.202,0.196,0.208,0.114,0.075,north-northeast,1.9,Yes
2023/06/11,12:30,0.140,0.129,0.202,0.193,0.206,0.113,0.075,north-northeast,2.6,No
2023/06/11,12:40,0.143,0.129,0.200,0.194,0.204,0.114,0.075,north-northeast,1.8,Yes
2023/06/11,12:50,0.141,0.128,0.203,0.195,0.205,0.113,0.074,north-northeast,2.6,No
2023/06/11,13:00,0.140,0.129,0.202,0.193,0.206,0.113,0.074,north,1.8,No
2023/06/11,13:10,0.143,0.127,0.199,0.193,0.204,0.114,0.074,northeast,2.7,No
2023/06/11,13:20,0.140,0.127,0.203,0.195,0.204,0.114,0.073,north-northeast,1.7,No
2023/06/11,13:30,0.140,0.128,0.202,0.194,0.206,0.111,0.073,northeast,3.2,No
2023/06/11,13:40,0.142,0.127,0.201,0.193,0.204,0.113,0.073,northeast,3.0,No
2023/06/11,13:50,0.141,0.127,0.203,0.195,0.204,0.113,0.073,east-northeast,2.8,Yes
2023/06/11,14:00,0.141,0.129,0.200,0.195,0.208,0.112,0.073,northeast,1.7,Yes
2023/06/11,14:10,0.141,0.127,0.200,0.194,0.205,0.114,0.073,east-northeast,1.9,Yes
2023/06/11,14:20,0.140,0.128,0.202,0.195,0.206,0.113,0.073,east-northeast,1.7,Yes
2023/06/11,14:30,0.141,0.127,0.201,0.193,0.206,0.112,0.073,east,2.2,No
2023/06/11,14:40,0.142,0.129,0.203,0.195,0.205,0.113,0.074,east-northeast,1.7,No
2023/06/11,14:50,0.141,0.127,0.201,0.195,0.206,0.113,0.073,east,1.3,No
2023/06/11,15:00,0.142,0.128,0.200,0.193,0.208,0.113,0.074,east,1.0,Yes
2023/06/11,15:10,0.141,0.128,0.202,0.195,0.204,0.113,0.073,-,CALM,No
2023/06/11,15:20,0.141,0.127,0.201,0.194,0.206,0.113,0.073,northeast,0.7,Yes
2023/06/11,15:30,0.141,0.128,0.201,0.192,0.206,0.113,0.074,-,CALM,Yes
2023/06/11,15:40,0.141,0.128,0.203,0.195,0.204,0.114,0.073,northwest,0.6,Yes
2023/06/11,15:50,0.142,0.128,0.201,0.195,0.206,0.113,0.074,north-northeast,0.7,Yes
2023/06/11,16:00,0.141,0.128,0.203,0.194,0.208,0.114,0.074,-,CALM,Yes
2023/06/11,16:10,0.141,0.127,0.203,0.197,0.203,0.114,0.073,northeast,1.5,Yes
2023/06/11,16:20,0.141,0.128,0.202,0.195,0.206,0.114,0.074,north-northeast,1.0,Yes
2023/06/11,16:30,0.141,0.128,0.202,0.193,0.206,0.113,0.074,-,CALM,Yes
2023/06/11,16:40,0.141,0.128,0.201,0.196,0.205,0.114,0.074,north-northeast,0.8,Yes
2023/06/11,16:50,0.142,0.129,0.202,0.193,0.207,0.112,0.074,-,CALM,Yes
2023/06/11,17:00,0.141,0.128,0.202,0.195,0.205,0.114,0.074,north-northwest,0.8,Yes
2023/06/11,17:10,0.143,0.129,0.201,0.195,0.206,0.113,0.074,-,CALM,Yes
2023/06/11,17:20,0.141,0.128,0.203,0.193,0.206,0.113,0.073,northwest,0.6,Yes
2023/06/11,17:30,0.142,0.128,0.201,0.195,0.204,0.114,0.074,-,CALM,Yes
2023/06/11,17:40,0.142,0.128,0.202,0.193,0.207,0.113,0.074,-,CALM,Yes
2023/06/11,17:50,0.140,0.128,0.202,0.195,0.205,0.113,0.073,north-northeast,0.6,Yes
2023/06/11,18:00,0.143,0.129,0.201,0.193,0.204,0.114,0.074,north-northeast,1.4,Yes
2023/06/11,18:10,0.142,0.128,0.203,0.193,0.207,0.113,0.074,north-northwest,1.8,Yes
2023/06/11,18:20,0.141,0.129,0.201,0.194,0.203,0.114,0.074,north-northwest,2.0,Yes
2023/06/11,18:30,0.142,0.129,0.202,0.193,0.206,0.114,0.074,northwest,1.6,Yes
2023/06/11,18:40,0.141,0.129,0.200,0.194,0.205,0.113,0.074,northwest,1.9,Yes
2023/06/11,18:50,0.143,0.129,0.202,0.194,0.204,0.114,0.075,north-northwest,2.5,Yes
2023/06/11,19:00,0.142,0.127,0.201,0.194,0.205,0.114,0.075,north-northwest,1.9,Yes
2023/06/11,19:10,0.142,0.129,0.201,0.195,0.204,0.114,0.073,north,1.6,Yes
2023/06/11,19:20,0.143,0.127,0.203,0.193,0.208,0.114,0.074,north,2.3,Yes
2023/06/11,19:30,0.141,0.129,0.202,0.195,0.205,0.114,0.075,north,2.0,Yes
2023/06/11,19:40,0.142,0.129,0.202,0.195,0.207,0.116,0.075,north,2.7,Yes
2023/06/11,19:50,0.142,0.129,0.201,0.194,0.207,0.116,0.074,north-northwest,3.1,Yes
2023/06/11,20:00,0.142,0.130,0.203,0.194,0.206,0.114,0.075,north-northwest,2.4,Yes
2023/06/11,20:10,0.141,0.130,0.201,0.194,0.209,0.116,0.075,northwest,2.4,Yes
2023/06/11,20:20,0.141,0.129,0.203,0.196,0.205,0.115,0.076,north-northwest,2.7,Yes
2023/06/11,20:30,0.143,0.130,0.201,0.193,0.207,0.116,0.076,north-northwest,2.5,Yes
2023/06/11,20:40,0.141,0.129,0.202,0.195,0.206,0.115,0.075,north-northwest,3.3,Yes
2023/06/11,20:50,0.143,0.128,0.202,0.193,0.207,0.114,0.075,north-northwest,3.9,Yes
2023/06/11,21:00,0.142,0.129,0.202,0.194,0.207,0.115,0.075,northwest,2.4,Yes
2023/06/11,21:10,0.142,0.128,0.201,0.193,0.205,0.113,0.076,west,3.1,Yes
2023/06/11,21:20,0.142,0.130,0.202,0.193,0.207,0.114,0.075,northwest,1.3,Yes
2023/06/11,21:30,0.141,0.127,0.202,0.195,0.205,0.114,0.076,northwest,2.2,No
2023/06/11,21:40,0.142,0.128,0.200,0.193,0.206,0.113,0.074,northwest,3.2,No
2023/06/11,21:50,0.140,0.127,0.201,0.194,0.204,0.114,0.075,north-northwest,3.7,Yes
2023/06/11,22:00,0.141,0.128,0.200,0.192,0.204,0.113,0.074,north-northwest,3.2,Yes
2023/06/11,22:10,0.140,0.127,0.200,0.193,0.205,0.113,0.073,north-northwest,3.5,No
2023/06/11,22:20,0.140,0.128,0.200,0.193,0.203,0.112,0.074,north-northwest,3.9,Yes
2023/06/11,22:30,0.141,0.127,0.200,0.191,0.206,0.112,0.073,northwest,3.9,No
2023/06/11,22:40,0.140,0.127,0.201,0.193,0.204,0.112,0.074,north-northwest,4.6,No
2023/06/11,22:50,0.141,0.128,0.199,0.191,0.206,0.112,0.073,north-northwest,4.3,Yes
2023/06/11,23:00,0.139,0.126,0.200,0.193,0.204,0.111,0.072,north-northwest,4.0,Yes
2023/06/11,23:10,0.141,0.127,0.200,0.192,0.205,0.111,0.073,north-northwest,4.3,No
2023/06/11,23:20,0.141,0.128,0.201,0.193,0.205,0.112,0.072,north-northwest,4.8,No
2023/06/11,23:30,0.140,0.127,0.199,0.191,0.203,0.112,0.073,north-northwest,5.1,No
2023/06/11,23:40,0.140,0.127,0.201,0.194,0.207,0.112,0.073,north-northwest,5.1,No
2023/06/11,23:50,0.139,0.127,0.199,0.192,0.203,0.112,0.073,north-northwest,5.6,Yes
